sat.trackr.live / text

‹ back to catalog

STARLINK-2683

NORAD 48462 · 2021-040AL

PAYLOAD ACTIVE UNKNOWN

§ Identity

Operator
Country
US
Launch date
2021-05-09
Launch site
AFETR
Launch vehicle
Mass (kg)
RCS (m²)

Purposes: comms

External: N2YO · Heavens-Above · Gunter

§ Orbital elements

Epoch: 2026-09-13T03:07:36.274080Z

Period
94.01 min
Inclination
53.1601°
Eccentricity
0.0001117
Mean motion
15.31711145 rev/d
Perigee alt
469.9 km
Apogee alt
471.5 km
Semi-major
6,848.8 km
B*
5.8314e-4
RAAN
38.7690°
Arg perigee
75.2717°
Mean anomaly
284.8408°
Rev number
29,522

§ Raw data

STARLINK-26831 48462U 21040AL  26256.13028095  .00017780  00000+0  58314-3 0  99962 48462  53.1601  38.7690 0001117  75.2717 284.8408 15.31711145295227

JSON: /api/v1/satellites/48462 · /tle

For live sub-satellite position, see the globe view (requires WebGL).

§ Visibility from observer

Set your observer location to see the next 7 days of passes ≥ 10°. The values pass through the URL so the page stays shareable.

No JS? Fill the form by hand. The geolocation button needs JavaScript.